Regional Weather Roundup
Issued by NWS

Home | Current Version | Previous Version | Graphics & Text | Print | Product List | Glossary On
Versions: 1 2 3 4 5 6 7 8 9 10 11 12 13 14 15 16 17 18 19 20 21 22 23 24 25 26 27 28 29 30 31 32 33 34 35 36 37 38 39 40 41 42 43 44 45 46 47 48 49 50
083
ASUS44 KJAN 171903
RWRMS

MISSISSIPPI HOURLY WEATHER ROUNDUP
NATIONAL WEATHER SERVICE JACKSON MS
100 PM CST WED DEC 17 2014

NOTE: "FAIR: INDICATES FEW OR NO CLOUDS BELOW 12,000 FEET WITH NO
SIGNIFICANT WEATHER AND/OR OBSTRUCTIONS TO VISIBILITY.

MSZ001>002-007>008-010>013-018>021-025>028-034>036-172000-
NORTHWEST MISSISSIPPI

CITY           SKY/WX    TMP DP  RH WIND       PRES   REMARKS
CLARKSDALE     FAIR      41  36  81 CALM      30.30F
CLEVELAND      FAIR      44  36  73 N5        30.28F
GREENWOOD      PTSUNNY   49  35  58 CALM      30.26F
GREENVILLE     PTSUNNY   46  36  68 VRB6      30.28F
GRENADA        FAIR      46  34  61 CALM      30.27F
OLIVE BRANCH   PTSUNNY   41  36  81 CALM      30.28F
OXFORD         FAIR      45  32  61 CALM      30.27F
TUNICA         CLOUDY    41  34  75 N3        30.29F
$$

MSZ003>006-009-014>017-022>024-029>033-037>039-172000-
NORTHEAST MISSISSIPPI

CITY           SKY/WX    TMP DP  RH WIND       PRES   REMARKS
COLUMBUS AFB   PTSUNNY   50  36  57 NE3       30.25F
CORINTH        FAIR      45  32  61 NW5       30.25F
GOLDN TRIANGLE MOSUNNY   52  37  58 N6        30.24F
STARKVILLE     FAIR      50  37  62 CALM      30.25F
TUPELO         MOSUNNY   47  34  60 E3        30.25F
$$

MSZ040-058-172000-
CENTRAL MISSISSIPPI

CITY           SKY/WX    TMP DP  RH WIND       PRES   REMARKS
JACKSON INTL   PTSUNNY   54  37  52 CALM      30.24F
JACKSON HAWKNS MOSUNNY   53  37  54 CALM      30.24F
MERIDIAN KEY   SUNNY     56  36  47 VRB5      30.23F
MERIDIAN NAS   PTSUNNY   54  36  50 VRB5      30.23F
RAYMOND        FAIR      55  50  82 W3        30.24F
VICKSBURG      MOSUNNY   51  38  60 CALM      30.25F
$$

MSZ059>079-172000-
SOUTH MISSISSIPPI

CITY           SKY/WX    TMP DP  RH WIND       PRES   REMARKS
HATTIESBURG    PTSUNNY   56  39  53 VRB5      30.24F
MCCOMB         CLOUDY    55  39  54 CALM      30.23F
NATCHEZ        CLOUDY    54  37  54 CALM      30.25F
PINE BELT      PTSUNNY   54  37  54 NE3       30.25F
$$

MSZ080>082-172000-
COASTAL MISSISSIPPI

CITY           SKY/WX    TMP DP  RH WIND       PRES   REMARKS
BAY ST LOUIS   SUNNY     57  34  41 VRB5      30.22F
BILOXI         MOSUNNY   58  39  48 N5        30.22F
PASCAGOULA     MOSUNNY   59  38  45 N6        30.20F
GULFPORT       PTSUNNY   58  38  47 N5        30.21F
$$



USA.gov is the U.S. government's official web portal to all federal, state and local government web resources and services.